Weather History for CZFS - December, 2012

Change the Weather History Date:

Monday, December 3, 2012

  Actual Average Record
Temperature  
Mean Temperature -14 °F -  
Max Temperature -7 °F - - ()
Min Temperature -20 °F - - ()
Degree Days  
Heating Degree Days 78    
Moisture  
Dew Point -15 °F    
Average Humidity 80    
Maximum Humidity 83    
Minimum Humidity 68    
Precipitation  
Precipitation 0.00 in - - ()
Sea Level Pressure  
Sea Level Pressure 30.15 in    
Wind  
Wind Speed 5 mph ()    
Max Wind Speed 9 mph    
Max Gust Speed -    
T = Trace of Precipitation, MM = Missing Value Source: Averaged Metar Reports

Daily Weather History Graph

Daily Weather History Graph

Search for Another Location

Airport or City:

Trip Planner

Search our weather history database for the weather conditions in past years. The results will help you decide how hot, cold, wet, or windy it might be!

Date:

Astronomy

Dec. 03, 2012 Rise Set
Actual Time 10:01 AM MST 3:48 PM MST
Civil Twilight 9:00 AM MST 4:48 PM MST
Nautical Twilight 8:01 AM MST 5:48 PM MST
Astronomical Twilight 7:07 AM MST 6:42 PM MST
Moon 9:38 PM MST (12/3) 12:35 PM MST (12/3)
Length of Visible Light 7h 48m
Length of Day
5h 46m
Waning Gibbous, 77% of the Moon is Illuminated
Dec 3
Waning Gibbous
Dec 6
Last Quarter
Dec 13
New
Dec 19
First Quarter
Dec 28
Full

Hourly Weather History & Observations

Time (MST) Temp. Windchill Dew Point Humidity Pressure Visibility Wind Dir Wind Speed Gust Speed Precip Events Conditions
12:00 AM -11.0 °F -22.8 °F -15.2 °F 82% 30.04 in - NNW 4.6 mph - N/A   Unknown
1:00 AM -10.5 °F -24.0 °F -14.6 °F 82% 30.04 in - NNW 5.8 mph - N/A   Unknown
2:00 AM -9.9 °F -23.4 °F -14.1 °F 82% 30.05 in - North 5.8 mph - N/A   Unknown
3:00 AM -9.8 °F -26.1 °F -14.1 °F 81% 30.06 in - NNW 8.1 mph - N/A   Unknown
4:00 AM -10.1 °F -23.6 °F -14.6 °F 81% 30.08 in - NNW 5.8 mph - N/A   Unknown
5:00 AM -10 °F - -14 °F 72% 30.08 in - NNW 8.1 mph - -  
6:00 AM -9.6 °F -27.0 °F -13.7 °F 82% 30.10 in - NNW 9.2 mph - N/A   Unknown
7:00 AM -9.2 °F -25.4 °F -13.4 °F 82% 30.11 in - NNW 8.1 mph - N/A   Unknown
8:00 AM -9.0 °F -25.2 °F -13.2 °F 82% 30.12 in - NNW 8.1 mph - N/A   Unknown
9:00 AM -8.9 °F -26.2 °F -13.0 °F 82% 30.12 in - NNW 9.2 mph - N/A   Unknown
10:00 AM -8.5 °F -24.5 °F -12.6 °F 82% 30.13 in - NNW 8.1 mph - N/A   Unknown
11:00 AM -8 °F - -13 °F 70% 30.14 in - NW 8.1 mph - -  
11:00 AM -8.3 °F -24.3 °F -12.6 °F 81% 30.14 in - NW 8.1 mph - N/A   Unknown
12:00 PM -8.1 °F -24.1 °F -12.5 °F 81% 30.15 in - NW 8.1 mph - N/A   Unknown
1:00 PM -8.0 °F -22.5 °F -12.5 °F 81% 30.17 in - NW 6.9 mph - N/A   Unknown
2:00 PM -7.4 °F -20.4 °F -11.9 °F 81% 30.18 in - NW 5.8 mph - N/A   Unknown
3:00 PM -7.4 °F -21.9 °F -11.9 °F 81% 30.17 in - NW 6.9 mph - N/A   Unknown
4:00 PM -8.7 °F -20.0 °F -13.0 °F 81% 30.19 in - NW 4.6 mph - N/A   Unknown
5:00 PM -11 °F - -15 °F 75% 30.19 in - West 3.5 mph - -  
5:00 PM -10.7 °F -20.0 °F -14.6 °F 83% 30.19 in - West 3.5 mph - N/A   Unknown
6:00 PM -13.2 °F -22.9 °F -17.5 °F 81% 30.19 in - NW 3.5 mph - N/A   Unknown
7:00 PM -14.1 °F - -18.4 °F 81% 30.21 in - NNW 2.3 mph - N/A   Unknown
8:00 PM -15.9 °F -26.0 °F -20.4 °F 80% 30.22 in - NNW 3.5 mph - N/A   Unknown
9:00 PM -15.3 °F - -19.8 °F 80% 30.22 in - WNW 2.3 mph - N/A   Unknown
10:00 PM -20.7 °F - -25.6 °F 78% 30.22 in - WNW 2.3 mph - N/A   Unknown
11:00 PM -18 °F - -23 °F 68% 30.21 in - NNW 2.3 mph - -  
11:00 PM -17.9 °F - -22.5 °F 79% 30.21 in - NNW 2.3 mph - N/A   Unknown